Temp
6 6 7 7 6 6 6 6 6 7 7 7 7 8 9 9 10 13 17 18 19 17 17 20 22 23 25 27 29 31 29 30 32 33 35 37 34 36 36 35 35 35 34 32 31
6 6 6 6 6 6 6 6 6 6 7 7 7 7 8 9 10 15 17 17 17 16 17 20 24 25 25 26 28 28 28 30 33 34 35 35 34 35 34 34 35 34 33 31 30
6 6 6 6 6 6 6 7 7 6 6 7 7 7 8 10 15 19 15 15 15 15 16 18 22 25 25 27 26 28 28 31 32 34 34 33 34 34 34 34 35 35 33 33 31
6 6 6 6 6 6 6 7 7 7 7 6 7 7 8 11 18 16 15 15 15 16 17 19 22 23 24 25 28 26 28 29 31 33 31 30 32 33 33 34 36 36 35 34 33
5 6 6 6 6 6 6 6 6 7 7 7 6 7 9 14 16 17 16 16 15 18 19 21 22 23 24 26 27 27 28 29 30 30 30 30 30 31 32 34 34 34 34 33 34
5 5 5 5 5 5 5 6 7 7 6 7 6 7 11 12 16 15 15 15 15 17 20 22 22 24 25 26 27 28 28 28 29 29 28 28 29 30 31 33 33 33 33 34 34
5 5 6 6 5 6 7 7 7 6 5 5 6 8 12 13 14 14 14 15 15 16 19 21 22 23 24 25 28 28 27 28 28 29 28 28 26 28 31 32 32 32 33 34 35
5 5 6 6 6 7 7 8 8 7 6 6 6 9 10 12 13 13 14 14 16 16 16 18 19 22 23 26 27 26 27 26 28 28 28 28 26 31 31 31 32 32 33 34 35
5 6 6 6 7 7 7 8 9 9 8 8 8 11 12 13 14 15 15 15 16 17 17 17 19 20 22 22 24 25 25 25 27 29 28 27 27 30 32 32 32 33 33 34 34
6 6 6 6 6 7 8 9 9 9 10 11 11 12 12 12 14 13 14 14 16 18 19 18 18 17 21 22 22 24 25 27 28 29 29 28 27 29 31 32 30 32 33 34 34
6 6 6 6 6 7 8 12 12 13 11 12 13 13 13 13 13 14 15 16 17 17 17 18 16 17 21 23 24 26 27 27 29 31 30 28 28 30 30 32 30 30 32 34 34
6 6 6 6 7 7 8 8 6 5 7 13 13 13 14 13 13 15 16 15 15 16 18 19 16 20 22 24 24 24 25 27 29 30 29 28 27 29 30 31 31 31 31 33 34
6 6 6 7 7 8 9 7 6 5 7 13 15 14 15 14 11 13 15 16 16 16 17 18 20 21 21 21 23 24 24 25 26 27 28 27 26 27 29 30 31 31 30 31 33
6 6 6 8 7 9 10 9 8 6 9 13 15 16 15 15 12 14 16 16 15 14 18 19 21 22 21 20 22 22 25 25 24 25 24 26 24 27 28 29 29 30 29 29 30
6 6 6 6 8 11 9 8 8 7 10 14 15 16 17 14 13 13 14 15 15 15 14 18 20 20 21 21 22 22 25 24 24 23 23 24 24 27 30 30 31 31 30 30 31
6 6 7 8 9 9 8 8 8 9 9 13 15 15 15 15 15 12 13 16 16 16 13 15 19 20 21 22 22 22 22 22 22 23 21 23 24 25 28 29 30 31 31 31 30
6 6 7 8 10 8 8 11 11 10 12 13 13 14 15 14 14 13 11 12 14 13 15 16 16 19 20 20 22 20 19 16 16 16 20 24 23 25 28 29 30 29 31 30 30
6 7 8 8 8 7 9 12 9 9 12 14 13 14 13 14 14 14 12 11 14 14 15 13 15 18 20 19 21 20 18 17 17 20 22 24 23 26 28 29 29 29 28 27 27
7 8 9 8 7 8 12 9 9 11 12 12 14 13 13 14 14 13 12 11 11 13 11 12 12 15 17 19 20 20 18 20 18 20 21 24 25 27 28 28 27 27 27 26 26
9 10 11 7 7 9 11 8 9 12 12 12 12 13 12 13 12 12 12 12 11 13 13 11 12 13 16 17 18 15 19 17 15 14 15 21 23 25 27 27 27 24 23 23 23
9 12 9 8 8 13 9 8 10 12 11 11 11 11 12 12 12 11 11 13 12 12 13 13 12 14 16 16 12 13 15 14 13 17 17 18 21 26 23 24 24 23 22 22 22
10 7 9 8 10 8 8 10 7 11 12 11 12 12 12 12 11 12 11 12 12 12 11 12 11 12 14 15 16 14 10 10 11 12 15 16 19 21 20 21 22 22 21 21 21
10 10 9 9 9 7 8 7 10 11 11 11 11 12 12 11 9 11 12 13 12 12 10 11 10 11 14 15 15 13 11 11 10 9 11 13 17 20 20 20 20 20 20 20 20
9 5 6 10 11 11 9 8 8 11 11 11 11 12 11 10 12 10 12 13 13 13 9 10 11 11 11 11 12 13 15 14 11 11 13 14 15 15 15 17 19 19 19 19 19
6 6 10 6 8 10 10 10 10 10 11 11 11 11 11 8 8 10 12 12 13 10 12 10 9 12 12 13 13 13 14 14 14 14 13 15 16 18 18 19 19 19 19 19 19
4 8 10 11 10 10 8 7 10 11 10 10 10 11 11 10 10 9 11 11 11 12 12 11 8 10 8 12 13 13 14 14 15 15 15 16 16 18 19 20 19 19 19 19 19
8 9 10 9 10 10 10 10 9 10 10 11 11 10 10 10 10 11 11 11 11 11 10 10 9 8 8 12 12 10 13 14 15 15 16 15 17 18 18 18 18 19 19 18 18
Height
825 823 821 818 817 814 812 810 807 805 802 800 798 796 793 789 785 783 778 775 773 771 773 772 769 767 764 758 751 743 754 744 733 725 714 697 717 705 702 709 710 710 713 717 722
825 823 820 819 816 814 811 810 807 805 802 799 797 795 792 788 784 774 770 769 769 770 771 769 762 759 759 754 747 748 749 734 717 709 710 703 713 710 717 716 713 715 716 720 723
825 823 820 818 816 813 811 808 804 803 801 798 796 794 791 787 776 756 761 763 764 761 765 767 762 756 752 747 748 741 738 723 718 707 707 712 710 709 713 717 705 712 716 718 722
824 822 820 818 816 813 809 806 804 802 799 797 794 792 789 787 767 759 762 763 761 759 760 760 758 753 751 746 736 745 730 728 719 708 721 727 717 711 710 711 699 701 707 714 717
825 822 819 817 814 811 808 806 803 799 796 794 792 791 788 776 765 762 762 763 761 757 753 750 749 746 741 737 733 732 727 723 720 718 719 722 721 718 712 705 705 705 709 714 712
825 822 820 817 813 810 806 803 799 796 794 792 791 790 786 773 763 763 763 762 761 756 749 743 742 738 732 729 725 720 723 721 718 718 723 729 724 718 710 707 705 705 706 707 708
825 821 818 815 811 807 803 798 795 792 790 789 789 788 781 771 765 763 762 759 757 756 748 741 740 737 730 725 715 717 724 717 716 716 719 721 729 715 707 704 705 703 702 699 698
823 821 817 814 809 804 799 794 791 788 786 785 785 784 774 767 764 762 759 754 752 752 752 745 743 736 731 719 715 720 721 727 708 711 712 722 719 692 699 702 700 698 694 690 692
822 819 816 812 807 802 795 791 789 786 783 783 783 779 767 761 759 754 751 749 746 743 746 747 744 738 730 730 726 716 718 717 711 696 709 719 712 693 684 689 691 689 688 688 687
821 818 814 811 807 801 795 789 788 784 780 780 779 775 769 765 757 756 752 749 743 739 738 741 741 739 727 720 717 708 709 697 694 692 693 703 704 696 683 680 691 686 681 680 682
820 817 815 811 807 803 795 786 786 779 783 780 775 770 764 761 756 749 745 741 738 736 728 727 737 728 706 703 701 692 692 691 681 671 682 692 693 688 685 680 688 689 683 675 674
820 817 815 811 808 805 803 801 809 810 797 778 773 771 762 759 750 740 737 740 735 727 723 718 721 707 705 696 699 697 695 684 673 668 676 684 691 685 680 678 677 683 682 676 673
819 817 814 811 808 807 805 807 808 808 800 770 765 761 757 755 756 745 741 730 727 722 715 708 693 705 706 704 699 694 695 690 686 682 679 688 696 687 675 671 671 675 678 678 674
819 817 814 810 810 807 804 807 806 807 786 766 757 755 754 748 753 746 734 732 729 727 709 704 694 690 700 702 699 698 684 692 694 697 703 690 705 684 677 675 673 672 677 680 676
819 816 813 810 810 805 809 806 805 806 780 769 758 756 747 749 751 742 739 733 724 724 727 700 696 692 687 691 693 693 686 690 698 702 705 698 701 673 658 663 658 658 663 666 669
817 816 813 811 808 808 806 805 805 794 786 770 759 756 748 744 742 751 738 728 722 717 728 716 696 692 688 682 686 693 697 697 698 698 710 694 697 682 668 661 658 652 651 655 661
817 815 813 811 808 807 805 799 790 790 785 771 766 757 748 748 741 744 749 736 728 725 711 709 708 699 692 692 688 700 706 728 731 726 703 683 695 674 654 649 651 653 646 649 655
815 813 812 811 809 806 802 788 796 800 782 774 767 757 754 750 747 741 748 748 735 725 712 718 708 698 692 692 685 692 703 711 713 694 685 673 685 657 654 650 649 652 658 662 668
814 812 811 810 807 805 795 800 804 789 784 781 764 763 756 753 751 746 753 755 754 742 743 730 716 711 695 690 690 685 693 695 703 690 685 663 654 649 646 649 652 658 662 665 669
812 809 805 808 806 803 798 809 803 793 790 784 775 769 765 758 759 757 752 754 760 750 745 743 728 723 711 702 698 709 694 707 714 723 720 683 665 654 648 647 649 667 677 680 681
811 803 807 807 805 795 802 806 798 793 795 790 782 777 771 765 762 764 761 755 759 755 749 743 738 722 713 707 727 724 712 716 718 698 701 698 678 648 666 659 663 673 680 685 687
808 813 807 807 802 808 807 800 808 793 793 791 787 779 774 770 771 764 763 761 765 760 757 752 750 733 714 716 711 723 742 742 734 733 704 703 688 672 679 679 674 678 684 688 692
806 806 806 806 801 810 809 809 802 795 790 789 785 780 779 775 785 774 765 764 767 762 769 758 759 739 715 715 716 725 737 739 745 752 734 720 695 680 682 685 687 690 692 691 692
810 815 813 805 800 794 799 804 806 796 795 791 788 783 779 782 775 778 765 763 763 761 772 767 757 747 741 747 737 726 719 721 737 741 718 714 701 705 703 694 689 691 694 697 699
813 811 801 809 805 795 795 796 795 793 793 789 784 781 780 792 790 781 769 764 761 765 761 767 768 747 741 734 733 727 721 716 713 711 719 709 697 689 691 690 690 691 694 692 692
815 807 800 791 795 795 800 806 793 787 789 792 785 781 782 784 779 782 773 770 768 760 758 765 771 758 764 740 727 722 718 715 711 707 706 700 696 682 680 682 685 687 688 687 687
807 804 799 795 789 789 788 788 792 790 792 788 786 787 786 782 781 777 777 773 769 766 763 765 770 769 758 732 730 738 720 706 705 702 700 697 688 680 682 684 684 683 683 684 685
Wind_Speed
13 13 14 14 14 15 15 15 15 16 15 15 14 17 19 21 22 19 21 17 11 10 13 15 16 15 15 17 20 16 16 21 25 24 17 10 9 13 8 9 5 1 4 5 14
13 14 14 14 14 14 14 15 16 16 16 16 15 15 19 21 21 25 26 26 27 27 23 21 18 16 14 15 18 17 16 29 21 21 14 16 11 17 11 15 12 9 8 7 15
12 13 14 15 15 15 15 16 17 17 17 16 16 15 19 20 20 5 8 5 8 21 29 25 23 19 21 19 21 22 26 21 24 21 12 15 14 17 10 16 16 15 9 9 13
13 14 14 15 15 15 17 18 19 19 19 17 16 14 17 13 6 7 4 9 7 4 19 24 22 22 24 24 25 25 28 25 27 16 12 19 19 19 17 15 11 6 8 4 11
13 14 15 16 17 17 17 18 19 20 20 19 16 13 14 10 17 14 12 13 14 10 18 19 21 23 27 25 24 29 27 25 21 24 17 18 21 20 21 15 18 14 12 11 12
13 13 14 16 17 18 19 20 21 22 21 19 15 12 15 20 8 11 14 17 16 16 16 17 20 22 22 29 26 27 25 24 24 20 21 21 22 21 25 20 21 19 19 18 17
12 14 16 18 19 21 24 25 23 23 21 18 14 12 15 19 19 24 23 24 20 17 16 18 17 19 21 24 27 27 26 18 25 29 22 18 25 33 23 21 17 22 23 22 19
13 15 16 19 22 26 26 23 24 20 16 12 10 13 13 18 18 22 24 27 24 23 22 21 14 16 23 17 20 25 26 24 28 22 25 18 29 27 24 28 27 24 20 20 21
13 16 18 21 25 25 25 20 13 10 7 4 9 10 16 5 10 14 13 16 20 23 25 24 19 17 15 21 20 21 23 32 27 27 21 23 29 26 17 13 24 24 23 22 19
13 16 18 21 21 22 23 19 9 9 6 4 5 11 6 14 27 22 19 22 18 17 20 19 12 17 19 18 23 30 30 29 30 27 26 28 31 21 18 16 14 15 20 23 23
13 15 17 19 19 20 25 12 5 6 8 7 13 12 15 21 21 22 20 17 14 18 23 25 17 20 29 29 24 28 30 30 24 22 27 28 25 24 23 20 17 19 20 19 22
12 15 17 19 13 15 19 8 5 5 8 9 6 11 12 11 20 16 13 14 17 20 24 24 26 31 26 27 28 27 29 28 25 18 19 19 21 21 22 24 20 19 18 18 17
12 14 17 18 5 8 11 10 4 1 5 5 7 6 13 13 8 11 17 13 16 17 24 27 30 30 30 28 28 28 26 25 17 18 14 12 20 23 22 22 21 19 20 21 20
11 13 16 16 4 8 6 12 7 2 4 9 11 7 10 9 4 27 19 15 10 13 22 26 30 26 30 29 28 27 24 23 19 19 18 22 20 23 23 24 23 22 21 19 22
10 13 14 9 8 7 10 13 7 2 5 12 11 9 11 6 11 5 20 12 19 16 8 23 27 30 25 27 28 29 22 22 25 21 20 19 14 16 19 23 24 25 22 23 22
9 12 12 1 5 8 13 12 4 4 4 10 14 15 17 14 13 18 14 13 15 14 8 22 12 16 27 24 24 26 24 20 18 20 19 28 22 21 19 20 21 23 19 18 19
8 11 6 6 7 13 13 7 4 3 11 11 18 17 12 17 13 12 15 11 6 9 16 14 15 18 10 20 26 16 18 9 11 9 16 23 23 22 15 22 17 7 11 10 7
8 8 5 5 9 11 9 5 3 4 6 13 14 16 10 15 14 11 15 14 17 16 13 5 13 20 15 15 21 21 21 8 15 17 21 23 23 24 24 25 2 6 4 4 5
5 3 5 3 9 8 4 1 2 7 10 12 15 13 11 14 13 11 8 11 10 16 10 8 1 15 8 4 7 18 21 23 20 16 14 16 26 25 25 14 9 6 5 6 3
6 5 2 7 8 8 2 1 2 5 9 9 9 10 13 15 12 14 12 13 12 17 16 8 9 3 7 2 6 8 12 17 10 9 19 13 18 15 19 26 10 10 7 5 4
6 2 4 8 6 2 0 2 4 4 7 7 11 11 13 13 12 7 10 8 15 17 13 12 7 8 11 3 3 5 3 4 6 13 9 17 18 16 12 8 11 12 7 6 4
4 1 2 5 0 2 2 3 3 5 4 6 6 8 8 13 8 10 10 12 10 16 14 8 6 11 9 7 4 10 4 3 3 5 9 9 15 8 11 7 7 10 6 5 3
0 3 2 4 2 2 3 1 5 6 4 4 6 4 10 9 5 10 14 7 9 15 10 9 3 8 4 5 1 5 2 3 3 3 5 5 7 10 10 7 6 6 7 8 8
2 1 3 3 3 3 3 3 3 5 8 6 8 9 8 8 8 8 13 5 12 12 6 5 8 10 10 7 7 12 12 7 7 4 10 9 17 15 16 10 12 7 9 10 13
2 3 1 2 3 6 4 5 8 5 5 6 6 8 8 2 8 9 15 15 14 4 5 5 6 14 15 18 17 18 17 16 16 14 13 17 23 21 16 15 16 14 14 15 11
3 3 4 5 3 7 4 4 8 7 5 8 8 10 7 10 13 14 16 15 15 14 10 5 5 14 15 17 17 17 17 18 19 19 19 21 22 22 21 18 15 16 14 13 10
5 2 4 3 5 6 7 8 5 2 6 9 9 9 12 14 11 15 16 17 18 18 16 14 9 8 14 12 13 13 17 14 16 18 19 20 21 21 18 18 18 17 16 15 15
Wind_Direction
18 16 12 9 4 2 358 353 349 342 340 334 333 327 330 332 318 287 256 251 268 279 269 274 265 255 256 245 245 242 251 240 240 244 247 223 201 219 246 267 172 241 20 67 133
14 12 9 4 1 359 357 354 351 345 337 332 327 324 323 329 309 280 263 257 260 262 260 260 253 240 226 252 234 226 233 241 240 249 244 261 213 237 212 224 216 177 127 129 156
9 7 3 359 356 353 349 349 351 346 340 333 327 324 321 326 295 304 141 198 271 256 236 244 256 254 240 232 231 227 239 243 244 256 273 262 241 254 221 242 210 194 153 148 174
5 3 358 353 348 342 339 338 337 337 339 332 327 323 319 310 276 118 69 344 349 266 211 224 232 232 235 231 230 227 241 244 266 257 237 254 268 257 232 242 257 239 173 199 194
3 359 355 349 343 339 333 329 325 322 324 325 321 320 319 272 252 278 303 304 315 264 226 219 222 227 228 230 236 230 241 244 239 260 246 256 254 259 256 241 251 253 241 240 233
356 354 350 346 340 334 329 324 320 314 309 311 308 308 281 274 284 286 292 290 286 277 245 222 231 235 246 234 230 235 240 244 249 229 244 248 258 255 248 256 253 245 244 240 234
352 351 349 346 341 335 330 324 321 315 305 296 292 289 277 265 285 290 285 279 268 262 265 245 238 242 233 246 236 244 244 234 238 243 235 236 259 246 243 247 234 236 236 237 232
353 349 347 346 341 337 331 326 324 319 305 286 274 280 273 278 282 285 279 270 261 247 251 265 286 249 251 248 245 229 236 243 232 228 233 226 259 248 226 229 238 239 248 232 224
351 349 349 348 347 346 340 335 335 339 331 292 264 243 281 305 255 305 284 260 261 247 234 245 250 247 226 233 227 224 227 226 241 223 210 212 244 255 245 239 225 233 231 234 230
348 350 350 348 351 351 349 332 306 307 302 234 270 293 274 316 308 308 283 272 259 243 224 221 230 234 227 211 219 213 223 231 228 226 218 215 235 255 271 229 231 249 237 228 227
344 347 349 347 350 5 357 352 343 197 1 339 314 307 305 317 295 288 264 261 236 235 220 203 209 213 218 219 230 241 230 233 242 243 212 219 245 239 237 237 233 232 243 234 226
338 343 347 348 359 18 23 45 24 336 308 304 317 276 293 304 303 282 234 234 241 233 222 215 215 220 224 234 226 236 247 250 237 228 228 232 243 244 242 238 223 231 243 249 237
332 339 342 348 356 358 18 39 356 297 269 306 276 285 330 334 314 319 302 227 261 252 227 223 215 222 229 232 240 224 235 238 248 237 252 243 249 246 233 235 234 238 247 249 249
325 335 340 345 295 351 26 358 347 282 284 19 352 12 309 319 286 310 305 262 244 260 244 231 235 220 222 228 234 241 221 244 251 243 229 211 249 235 231 241 236 235 225 234 244
320 329 338 354 329 349 334 333 325 242 331 340 329 326 340 36 330 8 314 273 257 239 295 221 230 237 235 217 228 238 242 221 242 240 245 248 250 254 241 232 229 225 225 229 232
317 325 339 306 295 345 325 319 260 263 352 321 348 341 337 360 26 352 340 228 275 271 204 272 303 270 246 245 220 234 245 246 247 241 244 237 244 247 246 239 244 249 231 212 216
311 322 323 321 337 327 326 272 280 358 328 344 340 333 351 360 353 25 351 15 355 273 231 232 236 257 257 238 235 225 224 217 220 221 230 229 237 242 239 255 252 305 240 207 211
314 319 296 304 322 323 306 295 284 313 317 336 323 327 16 15 337 7 26 15 2 337 303 287 210 216 222 238 219 211 209 211 209 218 233 225 234 233 236 250 318 268 324 146 186
321 276 258 313 329 319 299 307 16 311 347 337 318 347 3 17 347 15 53 21 360 3 346 332 74 337 343 310 245 221 216 226 261 279 275 251 218 234 244 185 192 172 227 6 26
304 281 204 329 321 280 35 355 261 316 322 330 341 345 350 3 4 0 21 23 11 2 347 333 302 309 306 224 262 311 322 207 221 215 243 250 249 241 219 231 228 104 76 58 31
270 267 76 330 294 286 188 262 258 316 327 324 336 334 336 351 340 24 347 34 5 351 355 343 313 291 291 205 72 339 268 318 327 239 238 235 245 256 23 52 143 119 101 81 70
278 303 33 324 174 341 218 314 0 281 268 285 291 319 337 329 336 358 358 22 7 346 349 343 316 307 328 309 336 82 52 54 312 356 238 252 254 28 84 66 58 88 81 65 12
284 281 122 279 220 214 280 352 275 276 288 300 299 321 309 320 344 336 334 30 340 339 352 329 317 307 205 185 72 68 123 144 167 197 252 280 204 161 139 92 53 33 8 351 355
102 201 326 325 245 267 206 255 241 245 275 270 282 283 290 336 320 309 311 356 333 331 357 291 301 301 302 309 287 297 301 203 160 249 270 251 270 282 306 323 307 307 311 289 295
353 232 165 166 234 249 222 230 268 258 241 266 283 268 299 292 292 294 320 317 322 102 263 358 285 306 313 315 311 299 292 288 281 266 253 268 276 284 288 302 303 309 290 283 284
154 203 202 279 230 240 155 270 246 262 223 272 266 287 295 293 304 305 313 312 314 302 315 336 286 316 301 288 278 279 288 292 280 274 274 276 274 284 287 286 282 283 280 278 275
271 230 280 253 236 242 234 232 248 262 298 285 294 302 296 294 308 310 302 293 283 283 283 285 278 293 283 297 323 293 268 267 259 259 266 273 281 288 291 296 294 292 290 291 285